Location: Goettingen
(51.5300°N, 9.9433°E)
Time: 18:25:44
(UTC+02:00)

ISS - Pass Details

Date: 08 May 2026
Orbit: 414 x 424 km, 51.6° (Epoch: 13 May)

Event Time Altitude Azimuth Distance (km) Brightness Sun altitude
Exits shadow 04:07:33 10° 272° (W) 1,532 -1.3 -12.0°
Reaches altitude 10° 04:07:39 10° 271° (W) 1,497 -1.3 -12.0°
Maximum altitude 04:10:33 27° 212° (SSW) 837 -2.8 -11.7°
Drops below altitude 10° 04:13:27 10° 152° (SSE) 1,496 -1.1 -11.4°
Sets 04:15:44 0° 140° (SE) 2,358 0.0 -11.1°
